Showing default

TIROS 8, 716

Orbit data source: Space-Track

TIROS 8, 716 is a payload satellite owned by GSFC (US) in LEO that was launched on Sat, 21 Dec 1963 UTC via a THOR DELTA B launch vehicle from the Air Force Western Test Range (AFWTR). Payload-class satellites include a variety of spacecraft equipped with specific instruments for various scientific and technological missions. These include communications satellites like Starlink; space stations such as the ISS; scientific satellites like the Hubble; Earth observation satellites from companies like Planet Labs, Umbra, and HawkEye 360; GPS; miniature CubeSats for education and research; and military/defense satellites.

Loading next visibility...
Identifier
716, 1963-054A
Orbit
LEO
Country
Flag of USUS
Related business
Manufacturer
RCA/East Windsor
Mission
Non-operational spacecraft
Bus & Motor
TIROS, Unknown motor
Mass
120 kg wet, 120 kg dry
Launch date (UTC)
1963-12-21 (62 years ago)
Launch vehicle
THOR DELTA B
Launch site
Air Force Western Test Range (AFWTR)
Object type
Payload
Rocket body
Debris
Shape & HBR
Unknown
Radar Cross Section
Medium (>0.1 m² and <1 m²)

Expand to show TLE details & history
Last TLE update: 9 hours ago

TLE from 9 hours ago
0 TIROS 8
1 00716U 63054A   26112.31037330  .00000319  00000-0  78325-4 0  9996
2 00716  58.4940 243.2610 0021896 171.3846 188.7574 14.73119517307481
Epoch: 2026-04-22T07:26Z
TLE epoch observation values (Epoch: 2026-04-22T07:26:56.253Z)
Latitude
0.00001°
Longitude
-78.84701°
Altitude
667.758 km
Speed
7.516 km/s
True Right ascension
16h 13m 02s
True Declination
0° 00' 00"
Sunlit
Object was in full shadow at epoch
Visualization orbit readout
Latitude
Unknown
Longitude
Unknown
Altitude
Unknown
Speed
Unknown
Apparent Right ascension
Unknown
Apparent Declination
Unknown
Sunlit
N/A
Visualization observer readout
Local Sidereal Time
23:48:57
Azimuth
Unknown
Elevation
Unknown
Doppler factor
Unknown
Orbital elements
Apogee altitude
665.955 km
Perigee altitude
635.175 km
Semi-major axis
7,028.702 km
Eccentricity
0.00219
Inclination
58.494°
RAAN
243.261°
Arg. of periapsis
171.3846°
True anomaly
188.7193°
Mean anomaly
188.7574°
Eccentric anomaly
188.73834°
Mean motion
3.68324 °/min
Orbital period
97.74 mins
BSTAR
0.000078325
Loading maneuver chart data...
Computing Atmospheric mass density...
Loading historical data...
Loading historical data...
Loading historical data...
Loading historical data...
Loading historical data...
Loading historical data...
Loading historical data...
Other satellites on launch #54 in the year 1963 (1963-12-21 UTC)

Documentation

Showing up to 5 results
|